Regional Weather Roundup
Issued by NWS

Home | Current Version | Previous Version | Text Only | Print | Product List | Glossary On
Versions: 1 2 3 4 5 6 7 8 9 10 11 12 13 14 15 16 17 18 19 20 21 22 23 24 25 26 27 28 29 30 31 32 33 34 35 36 37 38 39 40 41 42 43 44 45 46 47 48 49 50
000
ASUS44 KFWD 050615
RWRTX
NORTH TEXAS HOURLY WEATHER ROUNDUP
NATIONAL WEATHER SERVICE FORT WORTH TX
1200 AM CST THU MAR 05 2015

NOTE: "FAIR" INDICATES FEW OR NO CLOUDS BELOW 12,000 FEET WITH NO
SIGNIFICANT WEATHER AND/OR OBSTRUCTIONS TO VISIBILITY.

TXZ118-119-050700-
DALLAS/FORT WORTH METROPLEX

CITY           SKY/WX    TMP DP  RH WIND       PRES   REMARKS
DFW AIRPORT    SNOW      26  25  96 N21G35    30.32R VSB<1/4 WCI  12
6HR MIN TEMP:  26; 6HR MAX TEMP:  31; 6HR PCP:  0.35;

DALLAS LOVE    SNOW      28  26  92 N13G25    30.35R VSB 1/2 WCI  17
6HR MIN TEMP:  28; 6HR MAX TEMP:  32; 6HR PCP:  0.33;

FTW MEACHAM    FOG       28  24  85 N18       30.35R VSB 3/4 WCI  15
6HR MIN TEMP:  28; 6HR MAX TEMP:  33;

DAL-EXECUTIVE  SNOW      28  26  92 N17G26    30.32R VSB 1/2 WCI  16
6HR MIN TEMP:  28; 6HR MAX TEMP:  32; 6HR PCP:  0.29;

FTW-ALLIANCE   LGT SNOW  26  24  92 N20G28    30.37R VSB 3/4 WCI  12
6HR MIN TEMP:  26; 6HR MAX TEMP:  31; 6HR PCP:  0.18;

FTW-SPINKS     HVY RAIN  28  27  94 N13G21    30.37R WCI  18
6HR MIN TEMP:  28; 6HR MAX TEMP:  33; 6HR PCP:  0.10;

ARLINGTON      LGT SNOW  29  25  85 NW21G29   30.33R VSB 3/4 WCI  16
6HR MIN TEMP:  30; 6HR MAX TEMP:  33; 6HR PCP:  0.25;

GRAND PRAIRIE  CLOUDY    29  29 100 N12G18    30.33R WCI  19
6HR MIN TEMP:  29; 6HR MAX TEMP:  33; 6HR PCP:  0.08;

ADDISON        LGT SNOW  29  29 100 N10       30.35R VSB 3/4 WCI  19
6HR MIN TEMP:  29; 6HR MAX TEMP:  32; 6HR PCP:  0.10;

MESQUITE       CLOUDY    29  28  94 N18G25    30.30S WCI  17
6HR MIN TEMP:  29; 6HR MAX TEMP:  32; 6HR PCP:  0.11;

LANCASTER      LGT SNOW  29  26  87 N10G23    30.31R WCI  20
6HR MIN TEMP:  29; 6HR MAX TEMP:  33; 6HR PCP:  0.10;

$$

TXZ091>094-102>105-117-120-121-131>134-050700-
NORTH CENTRAL TEXAS

CITY           SKY/WX    TMP DP  RH WIND       PRES   REMARKS
SHRMAN/DENISON CLOUDY    27  27 100 N15       30.36R WCI  15
6HR MIN TEMP:  27; 6HR MAX TEMP:  31; 6HR PCP:  0.02;

GAINESVILLE    LGT SNOW  25  23  92 N16       30.39R WCI  12
6HR MIN TEMP:  25; 6HR MAX TEMP:  28;

BOWIE          LGT SNOW  24  23  93 N14G22    30.39R WCI  12
6HR MIN TEMP:  24; 6HR MAX TEMP:  28; 6HR PCP:  0.01;

BRIDGEPORT     LGT SNOW  26  25  97 N10G17    30.41R WCI  16
DECATUR        LGT SNOW  25  24  93 N13G24    30.36R WCI  14
6HR MIN TEMP:  25; 6HR MAX TEMP:  29; 6HR PCP:  0.06;

DENTON         LGT SNOW  26  24  92 N16       30.38R FOG     WCI  14
6HR MIN TEMP:  26; 6HR MAX TEMP:  30; 6HR PCP:  0.07;

MCKINNEY       SNOW      27  25  92 N15G23    30.32R VSB 1/2 WCI  15
6HR MIN TEMP:  27; 6HR MAX TEMP:  31; 6HR PCP:  0.24;

GREENVILLE     LGT SNOW  30  28  93 N15       30.29S VSB 3/4 WCI  19
TERRELL        FRZ RAIN  32  28  85 N18G28    30.28R FOG     WCI  20
6HR MIN TEMP:  31; 6HR MAX TEMP:  35; 6HR PCP:  0.19;

WAXAHACHIE     LGT SNOW  29  29 100 N13       30.32R WCI  19
6HR MIN TEMP:  29; 6HR MAX TEMP:  32; 6HR PCP:  0.10;

CLEBURNE       LGT SNOW  28  28 100 CALM      30.34R
GRANBURY       LGT SNOW  29  27  90 NW14      30.38R VSB 3/4 WCI  18
6HR MIN TEMP:  29; 6HR MAX TEMP:  34; 6HR PCP:  0.35;

$$

TXZ083>090-098>101-113>116-127>130-139>142-154-155-050700-
WESTERN NORTH TEXAS

CITY           SKY/WX    TMP DP  RH WIND       PRES   REMARKS
WICHITA FALLS  CLOUDY    25  20  81 N15       30.45R WCI  13
6HR MIN TEMP:  24; 6HR MAX TEMP:  26; 6HR PCP: TRACE;

WF-KICKAPOO    MOCLDY    27  24  87 N14       30.46R WCI  15
6HR MIN TEMP:  26; 6HR MAX TEMP:  28;

VERNON         CLOUDY    26  19  75 NW7       30.49R WCI  18
6HR MIN TEMP:  25; 6HR MAX TEMP:  57;

ABILENE        CLOUDY    23  20  88 N23G30    30.40R WCI   7
6HR MIN TEMP:  23; 6HR MAX TEMP:  28; 6HR PCP:  0.10;

BRECKENRIDGE   CLOUDY    27  23  86 N17       30.41R WCI  14
6HR MIN TEMP:  26; 6HR MAX TEMP:  30;

GRAHAM         CLOUDY    25  23  93 N14G20    30.41R WCI  13
6HR MIN TEMP:  25; 6HR MAX TEMP:  28;

MINERAL WELLS  LGT SNOW  26  22  84 N17G25    30.37R FOG     WCI  13
6HR MIN TEMP:  26; 6HR MAX TEMP:  31; 6HR PCP:  0.08;

STEPHENVILLE   CLOUDY    27  24  91 N17G24    30.34S WCI  14
6HR MIN TEMP:  27; 6HR MAX TEMP:  32;

COMANCHE       FLURRIES  27  27 100 N17G23    30.32R WCI  14
6HR MIN TEMP:  27; 6HR MAX TEMP:  31; 6HR PCP:  0.18;

BROWNWOOD      CLOUDY    27  23  86 N22       30.33R WCI  12
COLEMAN        MIX PCPN  26  24  90 N22G31    30.34R WCI  12
6HR MIN TEMP:  26; 6HR MAX TEMP:  31; 6HR PCP:  0.05;

BRADY          FLURRIES  27  27 100 N12       30.30R WCI  16
$$

TXZ143>147-156>162-174-175-050700-
CENTRAL TEXAS

CITY           SKY/WX    TMP DP  RH WIND       PRES   REMARKS
WACO           FRZ RAIN  32  29  88 N21G31    30.28R WCI  20
6HR MIN TEMP:  32; 6HR MAX TEMP:  36; 6HR PCP:  0.13;

WACO-MCGREGOR  CLOUDY    32  27  80 N21G30    30.28R WCI  20
6HR MIN TEMP:  32; 6HR MAX TEMP:  36; 6HR PCP:  0.10;

HILLSBORO      LGT SNOW  31  30  95 N20       30.27F WCI  19
6HR MIN TEMP:  31; 6HR MAX TEMP:  35; 6HR PCP:  0.08;

CORSICANA      FRZ RAIN  32  28  85 MISG      30.28R FOG
6HR MIN TEMP:  31; 6HR MAX TEMP:  36; 6HR PCP:  0.15;

MEXIA          FLURRIES  31  30  94 MISG      30.21R
6HR MIN TEMP:  31; 6HR MAX TEMP:  35; 6HR PCP:  0.15;

HEARNE         LGT RAIN  34  32  93 N22G33    30.20F WCI  22
6HR MIN TEMP:  34; 6HR MAX TEMP:  43; 6HR PCP:  0.02;

CAMERON        LGT SNOW  34  32  93 N18G32    30.27R WCI  23
6HR MIN TEMP:  33; 6HR MAX TEMP:  41; 6HR PCP:  0.12;

TEMPLE         CLOUDY    32  27  80 N24G30    30.23R WCI  19
6HR MIN TEMP:  32; 6HR MAX TEMP:  37; 6HR PCP:  0.06;

KILLEEN        FRZ RAIN  32  30  93 N23       30.23R WCI  19
                                      6HR PCP: TRACE;

KILLEEN-SKYLRK CLOUDY    34  27  75 N16       30.20F WCI  23
6HR MIN TEMP:  34; 6HR MAX TEMP:  37; 6HR PCP:  0.17;

FORT HOOD      FRZ RAIN  32  30  93 N22G28    30.24S VSB 1   WCI  19
                                      6HR PCP:  0.18;

GATESVILLE     LGT RAIN  32  32 100 CALM      30.29R
HAMILTON       LGT SNOW  30  30 100 N22G28    30.29R WCI  17
6HR MIN TEMP:  30; 6HR MAX TEMP:  33; 6HR PCP:  0.13;

LAMPASAS       FLURRIES  33  31  96 N9G16     30.25R WCI  25
6HR MIN TEMP:  32; 6HR MAX TEMP:  35; 6HR PCP:  0.26;

$$

TXZ095>097-106>112-122>126-135>138-148>153-164>167-050700-
EAST TEXAS

CITY           SKY/WX    TMP DP  RH WIND       PRES   REMARKS
PARIS          CLOUDY    28  25  86 CALM      30.32R
6HR MIN TEMP:  28; 6HR MAX TEMP:  34; 6HR PCP:  0.11;

SULPHUR SPRNGS LGT SNOW  31  30  96 N14       30.32R WCI  21
6HR MIN TEMP:  31; 6HR MAX TEMP:  35; 6HR PCP:  0.13;

MOUNT PLEASANT CLOUDY    34  33  98 N18       30.30R WCI  23
6HR MIN TEMP:  34; 6HR MAX TEMP:  40; 6HR PCP:  0.26;

GILMER         LGT SNOW  35  33  92 N18G25    30.19R WCI  24
6HR MIN TEMP:  35; 6HR MAX TEMP:  40; 6HR PCP:  1.53;

MINEOLA        MIX PCPN  32  32 100 CALM      30.27F
TYLER          LGT RAIN  34  31  88 N17G26    30.22R WCI  23
6HR MIN TEMP:  34; 6HR MAX TEMP:  40; 6HR PCP:  0.78;

LONGVIEW       HVY RAIN  37  34  89 N12       30.19R FOG     WCI  29
6HR MIN TEMP:  37; 6HR MAX TEMP:  45; 6HR PCP:  0.32;

MARSHALL       CLOUDY    38  36  91 N15G21    30.21R WCI  30
6HR MIN TEMP:  38; 6HR MAX TEMP:  48; 6HR PCP:  0.22;

ATHENS         MIX PCPN  32  32 100 NE14G24   30.20F WCI  22
PALESTINE      LGT SNOW  34  34  99 N17       30.21R WCI  24
JACKSONVILLE   CLOUDY    38  37  99 N13G18    30.19R WCI  30
HENDERSON      CLOUDY    36  35  96 N14G25    30.19R THUNDER WCI  27
6HR MIN TEMP:  36; 6HR MAX TEMP:  44;

NACOGDOCHES    CLOUDY    37  34  87 N10G18    30.14R WCI  30
6HR MIN TEMP:  37; 6HR MAX TEMP:  52; 6HR PCP:  0.11;

LUFKIN         LGT RAIN  43  39  86 N10       30.11R FOG     WCI  37
6HR MIN TEMP:  44; 6HR MAX TEMP:  60; 6HR PCP:  0.11;

$$

SUPPLEMENTAL OBSERVATIONS (CENTRAL)

CITY           SKY/WX    TMP DP  RH WIND       PRES   REMARKS
$$

SUPPLEMENTAL OBSERVATIONS (WEST)

CITY           SKY/WX    TMP DP  RH WIND       PRES   REMARKS
$$

SUPPLEMENTAL OBSERVATIONS (EAST)

CITY           SKY/WX    TMP DP  RH WIND       PRES   REMARKS
$$

SUPPLEMENTAL OBSERVATIONS ARE A COLLECTION OF AUTOMATED INSTRUMENTS
THAT ARE MAINTAINED BY A VARIETY OF FEDERAL AND STATE AGENCIES.
CERTAIN ELEMENTS...SUCH AS HUMIDITY VALUES AND SUSTAINED WIND
SPEEDS...MAY BE APPROXIMATED.



USA.gov is the U.S. government's official web portal to all federal, state and local government web resources and services.